Weather History for KLAR - February, 2013

Change the Weather History Date:

Thursday, February 7, 2013

  Actual Average Record
Temperature  
Mean Temperature 26 °F 22 °F  
Max Temperature 42 °F 34 °F 59 °F (1987)
Min Temperature 10 °F 10 °F -27 °F (2003)
Degree Days  
Heating Degree Days 39 43  
Month to date heating degree days 243 301  
Since 1 July heating degree days 4904 5316  
Cooling Degree Days 0 0  
Month to date cooling degree days 0 0  
Year to date cooling degree days 0 0  
Moisture  
Dew Point 5 °F    
Average Humidity 45    
Maximum Humidity 80    
Minimum Humidity 10    
Precipitation  
Precipitation 0.00 in 0.01 in 0.16 in (1965)
Month to date precipitation T 0.08  
Year to date precipitation 0.15 0.35  
Sea Level Pressure  
Sea Level Pressure 30.11 in    
Wind  
Wind Speed 10 mph (SSW)    
Max Wind Speed 22 mph    
Max Gust Speed 29 mph    
Visibility 10 miles    
Events      
T = Trace of Precipitation, MM = Missing Value Source: NWS Daily Summary

Daily Weather History Graph

Daily Weather History Graph

Search for Another Location

Airport or City:

Trip Planner

Search our weather history database for the weather conditions in past years. The results will help you decide how hot, cold, wet, or windy it might be!

Date:

Astronomy

Feb. 07, 2013 Rise Set
Actual Time 7:07 AM MST 5:27 PM MST
Civil Twilight 6:38 AM MST 5:55 PM MST
Nautical Twilight 6:05 AM MST 6:28 PM MST
Astronomical Twilight 5:33 AM MST 7:00 PM MST
Moon 4:50 AM MST (2/7) 2:53 PM MST (2/7)
Length of Visible Light 11h 17m
Length of Day
10h 19m
Waning Crescent, 8% of the Moon is Illuminated
Feb 7
Waning Crescent
Feb 10
New
Feb 17
First Quarter
Feb 25
Full
Mar 4
Last Quarter

Hourly Weather History & Observations

Time (MST) Temp. Windchill Dew Point Humidity Pressure Visibility Wind Dir Wind Speed Gust Speed Precip Events Conditions
12:53 AM 17.1 °F 5.0 °F 9.0 °F 71% 30.08 in 10.0 mi SW 10.4 mph - N/A   Clear
1:53 AM 17.1 °F 3.0 °F 10.0 °F 74% 30.09 in 10.0 mi SW 13.8 mph - N/A   Clear
2:53 AM 14.0 °F 3.9 °F 9.0 °F 80% 30.13 in 10.0 mi SSW 6.9 mph - N/A   Clear
3:53 AM 15.1 °F 3.3 °F 9.0 °F 77% 30.13 in 10.0 mi WSW 9.2 mph - N/A   Partly Cloudy
4:53 AM 14.0 °F - 8.1 °F 77% 30.16 in 10.0 mi Calm Calm - N/A   Partly Cloudy
5:53 AM 12.0 °F 5.9 °F 7.0 °F 80% 30.19 in 10.0 mi East 3.5 mph - N/A   Clear
6:53 AM 12.9 °F 6.9 °F 6.1 °F 74% 30.21 in 10.0 mi SSW 3.5 mph - N/A   Clear
7:53 AM 14.0 °F 5.1 °F 8.1 °F 77% 30.23 in 10.0 mi SSE 5.8 mph - N/A   Clear
8:53 AM 24.1 °F 13.7 °F 12.0 °F 60% 30.18 in 10.0 mi SW 10.4 mph - N/A   Clear
9:53 AM 30.0 °F 20.5 °F 7.0 °F 38% 30.17 in 10.0 mi SSW 11.5 mph - N/A   Clear
10:53 AM 34.0 °F 28.8 °F -0.0 °F 24% 30.15 in 10.0 mi WSW 5.8 mph - N/A   Clear
11:53 AM 36.0 °F - -2.0 °F 20% 30.12 in 10.0 mi Calm Calm - N/A   Clear
12:53 PM 39.9 °F 35.8 °F -2.9 °F 16% 30.08 in 10.0 mi WNW 5.8 mph - N/A   Clear
1:53 PM 42.1 °F 34.2 °F -5.1 °F 14% 30.04 in 10.0 mi SW 16.1 mph 28.8 mph N/A   Clear
2:53 PM 42.1 °F 33.1 °F -11.0 °F 10% 30.05 in 10.0 mi SW 20.7 mph - N/A   Clear
3:53 PM 39.9 °F 30.5 °F -9.0 °F 12% 30.04 in 10.0 mi SW 19.6 mph - N/A   Clear
4:53 PM 36.0 °F 28.5 °F -2.9 °F 19% 30.08 in 10.0 mi WSW 10.4 mph - N/A   Clear
5:53 PM 32.0 °F 22.1 °F -5.1 °F 20% 30.12 in 10.0 mi SW 13.8 mph - N/A   Clear
6:53 PM 27.0 °F 16.7 °F 9.0 °F 47% 30.14 in 10.0 mi SSE 11.5 mph - N/A   Clear
7:53 PM 28.9 °F 17.3 °F 14.0 °F 54% 30.10 in 10.0 mi South 16.1 mph - N/A   Clear
8:53 PM 24.1 °F 12.0 °F 12.0 °F 60% 30.08 in 10.0 mi SSE 13.8 mph - N/A   Clear
9:53 PM 19.0 °F 9.0 °F 10.0 °F 68% 30.06 in 10.0 mi South 8.1 mph - N/A   Clear
10:53 PM 19.0 °F 6.1 °F 9.0 °F 65% 30.01 in 10.0 mi South 12.7 mph - N/A   Clear
11:53 PM 19.9 °F 7.3 °F 9.0 °F 62% 30.00 in 10.0 mi SSE 12.7 mph - N/A   Clear